This is the latest recevied weather packets stored in our database for station/object K1AWR. If no packets are shown the sender has not sent any weather packets the latest 10 day(s).
| Time | Temp. | Humidity | Pressure | Rain* | Wind** | Luminosity | Snow |
|---|---|---|---|---|---|---|---|
| 1778146160 | 9.44° C | 87% | 1008.9 hPa | 0 mm | - | 0 W/m² | - |
| 1778145855 | 9.44° C | 88% | 1009 hPa | 0 mm | - | 0 W/m² | - |
| 1778145552 | 9.44° C | 90% | 1008.9 hPa | 0 mm | - | 0 W/m² | - |
| 1778145249 | 9.44° C | 91% | 1009 hPa | 0 mm | - | 0 W/m² | - |
| 1778144944 | 9.44° C | 91% | 1008.7 hPa | 0 mm | - | 0 W/m² | - |
| 1778144641 | 9.44° C | 91% | 1009 hPa | 0 mm | - | 0 W/m² | - |
| 1778144338 | 9.44° C | 91% | 1008.8 hPa | 1.78 mm | - | 0 W/m² | - |
| 1778144034 | 9.44° C | 91% | 1008.9 hPa | 1.78 mm | - | 0 W/m² | - |
| 1778143732 | 9.44° C | 91% | 1009 hPa | 0 mm | - | 0 W/m² | - |
| 1778143428 | 9.44° C | 91% | 1009.1 hPa | 0 mm | - | 0 W/m² | - |
| 1778143126 | 9.44° C | 91% | 1009.4 hPa | 1.27 mm | - | 0 W/m² | - |
| 1778142822 | 9.44° C | 91% | 1009.2 hPa | 3.05 mm | - | 0 W/m² | - |
| 1778142518 | 9.44° C | 91% | 1009 hPa | 1.78 mm | - | 0 W/m² | - |
| 1778142214 | 9.44° C | 91% | 1008.7 hPa | 0 mm | - | 0 W/m² | - |
| 1778141911 | 9.44° C | 91% | 1009.3 hPa | 0 mm | - | 0 W/m² | - |
| 1778141607 | 9.44° C | 91% | 1009.3 hPa | 0 mm | - | 0 W/m² | - |
| 1778141304 | 9.44° C | 91% | 1009.7 hPa | 0 mm | - | 0 W/m² | - |
| 1778141000 | 9.44° C | 91% | 1009.7 hPa | 1.27 mm | - | 0 W/m² | - |
| 1778140695 | 9.44° C | 91% | 1009.5 hPa | 1.27 mm | - | 0 W/m² | - |
| 1778140392 | 10° C | 90% | 1009.6 hPa | 0 mm | - | 0 W/m² | - |
| 1778140089 | 10° C | 90% | 1009.4 hPa | 0 mm | - | 0 W/m² | - |
| 1778139786 | 10° C | 90% | 1009.4 hPa | 0 mm | - | 0 W/m² | - |
| 1778139483 | 10° C | 90% | 1009.4 hPa | 0 mm | - | 0 W/m² | - |
| 1778139180 | 10° C | 90% | 1009 hPa | 0 mm | - | 0 W/m² | - |
| 1778138877 | 10° C | 90% | 1009.4 hPa | 0 mm | - | 0 W/m² | - |
* Rain latest hour (hover to see other rain measurements)
** Current wind speed in m/s (hover to see current wind gust speed)